Regional Weather Roundup
Issued by NWS

Home | Current Version | Previous Version | Graphics & Text | Print | Product List | Glossary On
Versions: 1 2 3 4 5 6 7 8 9 10 11 12 13 14 15 16 17 18 19 20 21 22 23 24 25 26 27 28 29 30 31 32 33 34 35 36 37 38 39 40 41 42 43 44 45 46 47 48 49 50
000
ASUS43 KMKX 012200
RWRWI

WISCONSIN REGIONAL WEATHER ROUNDUP
NATIONAL WEATHER SERVICE MILWAUKEE/SULLIVAN WI
500 PM CDT WED JUL 01 2015

NOTE: "FAIR" INDICATES FEW OR NO CLOUDS BELOW 12,000 FEET WITH NO
SIGNIFICANT WEATHER AND/OR OBSTRUCTIONS TO VISIBILITY.

WIZ001-002-006>008-014>016-023>028-012300-
NORTHWEST WISCONSIN

CITY           SKY/WX    TMP DP  RH WIND       PRES   REMARKS
SUPERIOR ARPT  SUNNY     73  57  56 E5        29.98F
ASHLAND        SUNNY     70  50  49 NE7       30.01S
HAYWARD        MOSUNNY   73  49  42 NE8       30.00F
SIREN          PTSUNNY   75  49  40 NE5       30.00F
CUMBERLAND     MOSUNNY   70  48  46 NE5       30.01S
RICE LAKE      MOSUNNY   72  49  43 CALM      30.01F
CHETEK         MOSUNNY   71  51  49 MISG      30.00S
LADYSMITH      SUNNY     73  50  44 N6        30.01S
EAU CLAIRE     SUNNY     73  50  44 NE6       29.98F
MENOMONIE      SUNNY     72  50  46 E7        30.00S
NEW RICHMOND   SUNNY     71  48  44 CALM      30.01S
OSCEOLA        SUNNY     74  51  43 NE5       30.02S
$$

WIZ003>005-009-010-017-018-012300-
NORTH CENTRAL WISCONSIN

CITY           SKY/WX    TMP DP  RH WIND       PRES   REMARKS
MANITOWISH WTR SUNNY     68  44  42 CALM      30.01S
ARBOR VITAE    SUNNY     69  45  41 CALM      30.01S
WOODRUFF       SUNNY     69  45  41 CALM      30.01S
RHINELANDER    SUNNY     69  43  38 CALM      30.01F
EAGLE RIVER    SUNNY     68  39  34 N6        30.01S
LAND O LAKES   SUNNY     67  43  41 N6        30.02F
PHILLIPS       SUNNY     70  46  41 E6        30.00S
TOMAHAWK       SUNNY     69  44  40 N6        30.01S
MEDFORD        SUNNY     71  45  39 N6        30.00S
MERRILL        SUNNY     70  45  40 CALM      30.00S
$$

WIZ029-030-035-036-043>047-012300-
CENTRAL WISCONSIN

CITY           SKY/WX    TMP DP  RH WIND       PRES   REMARKS
WAUSAU         MOSUNNY   72  43  35 VRB5      29.97S
MOSINEE        SUNNY     72  45  37 N5        29.99S
MARSHFIELD     SUNNY     72  44  36 CALM      29.98F
STEVENS POINT  MOSUNNY   70  44  38 NE6       29.98F
WAUPACA        MOSUNNY   73  44  35 N5        29.98S
WAUTOMA        NOT AVBL
WISC RAPIDS    MOSUNNY   72  45  37 N3        29.99F
CAMP DOUGLAS   NOT AVBL
$$

WIZ011>013-019>022-031-037>040-048>050-012300-
NORTHEAST WISCONSIN

CITY           SKY/WX    TMP DP  RH WIND       PRES   REMARKS
ANTIGO         SUNNY     68  45  42 CALM      29.99F
SHAWANO        MOSUNNY   73  44  36 NE6       29.98S
OCONTO         MOSUNNY   66  53  61 E7        29.97S
STURGEON BAY   MOSUNNY   64  50  59 N6        30.00F
GREEN BAY      PTSUNNY   69  53  56 N7        29.97F
MANITOWOC      NOT AVBL
APPLETON       MOSUNNY   68  48  49 NE8       29.98F
CLINTONVILLE   MOSUNNY   70  41  35 CALM      29.97F
OSHKOSH        PTSUNNY   67  53  61 NE12      29.97F
$$

WIZ032>034-041-042-053>061-012300-
SOUTHWEST WISCONSIN

CITY           SKY/WX    TMP DP  RH WIND       PRES   REMARKS
LA CROSSE      PTSUNNY   70  49  47 S5        29.98F
SPARTA         MOSUNNY   73  38  28 CALM      29.99S
VIROQUA        PTSUNNY   67  48  51 E7        30.00F
BOSCOBEL       CLOUDY    69  51  52 VRB3      29.98S
PRAIRIE DU CHI CLOUDY    65  49  56 CALM      29.98S
PLATTEVILLE    CLOUDY    67  50  53 N9        29.98S
$$

WIZ056-057-062-063-064-067-068-012300-
SOUTH CENTRAL WISCONSIN

CITY           SKY/WX    TMP DP  RH WIND       PRES   REMARKS
REEDSBURG      PTSUNNY   67  49  53 CALM      29.98S
BARABOO/DELLS  PTSUNNY   68  46  44 CALM      29.98S
LONE ROCK      NOT AVBL
MINERAL POINT  CLOUDY    66  46  48 N3        29.98S
MADISON        CLOUDY    67  50  54 N7        29.97R
MIDDLETON      CLOUDY    70  47  43 N8        29.98R
WATERTOWN      PTSUNNY   66  54  65 N6        29.96S
MONROE         CLOUDY    64  50  59 N8        29.97S
JANESVILLE     SUNNY     70  50  49 N5        29.96R
$$

WIZ051-052-058>065-066-070>072-012300-
SOUTHEAST WISCONSIN

CITY           SKY/WX    TMP DP  RH WIND       PRES   REMARKS
MILWAUKEE      CLOUDY    55  50  83 E7        29.99F
WAUKESHA       MOSUNNY   61  52  72 E8        29.99R
MILWAUKEE/TIMM NOT AVBL
RACINE         PTSUNNY   55  49  80 NE10      30.01S
BURLINGTON     PTSUNNY   64  52  66 E7        29.97S
KENOSHA        PTSUNNY   58  51  78 E10       29.99S
FOND DU LAC    MOSUNNY   67  53  61 NE10      29.97F
SHEBOYGAN      PTSUNNY   60  53  77 NE9       29.99F
WEST BEND      MOSUNNY   63  52  67 E9        29.98R
JUNEAU         PTSUNNY   66  52  60 N7        29.98R
$$

LSZ147-162-012300-
LAKE SUPERIOR

STATION/POSITION TIME  TEMP    WIND        PRES    WAVE
                       AIR SEA DIR/SP/G            HT/PER
                 (UTC) (F)     (DEG/KT/KT) (MB)    (FT/S)
W MID LAKE BUOY  2050   48 39  190/  4/  4 1017.3F   1
DEVILS ISLAND    2100   65     130/  6/  8 1016.4F
SAXON HARBOR     2100   63        CALM     1016.6
$$

LMZ867-665-643>646-012300-
LAKE MICHIGAN

STATION/POSITION TIME  TEMP    WIND        PRES    WAVE
                       AIR SEA DIR/SP/G            HT/PER
                 (UTC) (F)     (DEG/KT/KT) (MB)    (FT/S)
CHAMBERS ISLAND  2100   62      20/  8/ 10 1015.6S
N MID LAKE BUOY  2050   52 45  240/  4/  6 1015.7F   1/ 4
NORTHPORT PIER   2100   61     350/ 11/ 13 1015.2F
SISTER BAY       2114   67      30/ 13/ 19   N/A
ALGOMA LAKESHORE 2140          190/  7/  8   N/A
KEWAUNEE LAKESHO 2100   57     150/  4/  7 1015.1F
SHEBOYGAN LAKESH 2100   53      50/  7/  9 1016.4R
PORT WASHINGTON  2100   56      60/  7/  9 1016.6S
ATWATER BUOY     2100   53      70/  8/ 10 1017.1R
MILWAUKEE LAKESH 2100   53      50/  8/ 11   N/A
KENOSHA   LAKESH 2100   55      60/  8/  8 1015.6S
$$

TC  - TEMPERATURE IN CELSIUS
VSB - VISIBILITY IN STATUTE MILES
WCI - WIND CHILL INDEX
HX  - HEAT INDEX




USA.gov is the U.S. government's official web portal to all federal, state and local government web resources and services.